This is the latest recevied weather packets stored in our database for station/object N4HAC. If no packets are shown the sender has not sent any weather packets the latest 10 day(s).
| Time | Temp. | Humidity | Pressure | Rain* | Wind** | Luminosity | Snow |
|---|---|---|---|---|---|---|---|
| 1777771621 | 10.56° C | 50% | 1008.6 hPa | 0 mm | - | 0 W/m² | - |
| 1777771318 | 10.56° C | 50% | 1008.7 hPa | 0 mm | - | 0 W/m² | - |
| 1777771014 | 10.56° C | 51% | 1008.4 hPa | 0 mm | - | 0 W/m² | - |
| 1777770711 | 10.56° C | 50% | 1008.2 hPa | 0 mm | - | 0 W/m² | - |
| 1777770408 | 11.11° C | 50% | 1008.4 hPa | 0 mm | - | 0 W/m² | - |
| 1777770105 | 11.11° C | 50% | 1008.3 hPa | 0 mm | - | 0 W/m² | - |
| 1777769802 | 11.11° C | 50% | 1008.2 hPa | 0 mm | - | 0 W/m² | - |
| 1777769499 | 11.11° C | 49% | 1008 hPa | 0 mm | - | 0 W/m² | - |
| 1777769195 | 11.11° C | 49% | 1008 hPa | 0 mm | - | 0 W/m² | - |
| 1777768894 | 11.11° C | 51% | 1007.7 hPa | 0 mm | - | 0 W/m² | - |
| 1777768591 | 11.11° C | 49% | 1007.8 hPa | 0 mm | - | 0 W/m² | - |
| 1777768288 | 11.11° C | 48% | 1007.4 hPa | 0 mm | - | 0 W/m² | - |
| 1777767985 | 11.11° C | 49% | 1007.5 hPa | 0 mm | - | 0 W/m² | - |
| 1777767681 | 11.11° C | 49% | 1007.4 hPa | 0 mm | - | 0 W/m² | - |
| 1777767377 | 11.11° C | 48% | 1007.4 hPa | 0 mm | - | 0 W/m² | - |
| 1777767075 | 11.11° C | 48% | 1007.2 hPa | 0 mm | - | 1 W/m² | - |
| 1777766772 | 11.67° C | 48% | 1007.2 hPa | 0 mm | - | 2 W/m² | - |
| 1777766469 | 11.67° C | 48% | 1007.3 hPa | 0 mm | - | 3 W/m² | - |
| 1777766165 | 11.67° C | 47% | 1007.1 hPa | 0 mm | - | 5 W/m² | - |
| 1777765863 | 11.67° C | 48% | 1007 hPa | 0 mm | - | 7 W/m² | - |
| 1777765559 | 11.67° C | 47% | 1006.9 hPa | 0 mm | - | 6 W/m² | - |
| 1777765257 | 11.67° C | 47% | 1007.1 hPa | 0 mm | - | 13 W/m² | - |
| 1777764957 | 11.67° C | 46% | 1006.8 hPa | 0 mm | - | 17 W/m² | - |
| 1777764654 | 11.67° C | 47% | 1006.9 hPa | 0 mm | - | 21 W/m² | - |
| 1777764351 | 12.22° C | 44% | 1006.7 hPa | 0 mm | - | 26 W/m² | - |
* Rain latest hour (hover to see other rain measurements)
** Current wind speed in m/s (hover to see current wind gust speed)